| time (UTC) | temp F | wind direction | speed MPH | gust MPH | rain 1hr in | rain 24hr in | rain mn in | humidity % | barometer mb |
| 20260504110503 | 37 | 312 | 0.0 | 0.0 | 0.00 | 0.00 | 0.00 | 96 | 1012.5 |
| 20260504100424 | 33 | 323 | 0.0 | 0.0 | 0.00 | 0.00 | 0.00 | 96 | 1012.8 |
| 20260504081817 | 33 | 286 | 0.0 | 0.0 | 0.00 | 0.00 | 0.00 | 95 | 1013.1 |
| 20260504081314 | 33 | 295 | 0.0 | 0.0 | 0.00 | 0.00 | 0.00 | 95 | 1013.2 |
| 20260504080810 | 33 | 344 | 0.0 | 0.0 | 0.00 | 0.00 | 0.00 | 94 | 1013.2 |
| 20260504080307 | 33 | 293 | 0.0 | 0.0 | 0.00 | 0.00 | 0.00 | 95 | 1013.0 |
| 20260504070235 | 34 | 5 | 0.0 | 0.0 | 0.00 | 0.00 | 0.00 | 94 | 1013.3 |
| 20260504060155 | 35 | 274 | 0.0 | 0.0 | 0.00 | 0.00 | 0.00 | 92 | 1013.1 |
| 20260504050623 | 36 | 342 | 0.0 | 0.0 | 0.00 | 0.00 | 0.00 | 90 | 1013.3 |
| 20260504050120 | 36 | 324 | 0.0 | 0.0 | 0.00 | 0.00 | 0.00 | 89 | 1013.4 |
| 20260504045617 | 37 | 302 | 0.0 | 0.0 | 0.00 | 0.00 | 0.00 | 89 | 1013.2 |
| 20260504045112 | 37 | 345 | 0.0 | 0.0 | 0.00 | 0.00 | 0.00 | 88 | 1013.3 |
| 20260504044610 | 37 | 306 | 0.0 | 0.0 | 0.00 | 0.00 | 0.00 | 87 | 1013.1 |
| 20260504044107 | 37 | 309 | 0.0 | 0.0 | 0.00 | 0.00 | 0.00 | 87 | 1013.1 |
| 20260504043604 | 37 | 263 | 0.0 | 0.0 | 0.00 | 0.00 | 0.00 | 87 | 1013.3 |
| 20260504043101 | 38 | 301 | 0.0 | 1.0 | 0.00 | 0.00 | 0.00 | 87 | 1013.2 |
| 20260504042558 | 38 | 287 | 0.0 | 0.0 | 0.00 | 0.00 | 0.00 | 87 | 1013.3 |
| 20260504042055 | 38 | 278 | 0.0 | 0.0 | 0.00 | 0.00 | 0.00 | 87 | 1013.2 |
| 20260504041550 | 38 | 255 | 0.0 | 0.0 | 0.00 | 0.00 | 0.00 | 86 | 1013.1 |
| 20260504041047 | 38 | 276 | 0.0 | 0.0 | 0.00 | 0.00 | 0.00 | 86 | 1013.3 |
| 20260504040545 | 38 | 297 | 0.0 | 0.0 | 0.00 | 0.00 | 0.00 | 85 | 1013.3 |
| 20260504040041 | 38 | 246 | 0.0 | 1.0 | 0.00 | 0.00 | 0.00 | 85 | 1013.2 |
| 20260504035538 | 38 | 269 | 0.0 | 0.0 | 0.00 | 0.00 | 0.00 | 84 | 1013.2 |
| 20260504035034 | 39 | 270 | 0.0 | 0.0 | 0.00 | 0.00 | 0.00 | 84 | 1013.2 |
| 20260504034533 | 39 | 295 | 0.0 | 0.0 | 0.00 | 0.00 | 0.00 | 84 | 1013.3 |
| 20260504034029 | 39 | 290 | 0.0 | 0.0 | 0.00 | 0.00 | 0.00 | 83 | 1013.1 |
| 20260504033527 | 39 | 268 | 0.0 | 0.0 | 0.00 | 0.00 | 0.00 | 81 | 1013.0 |
| 20260504033024 | 39 | 274 | 0.0 | 0.0 | 0.00 | 0.00 | 0.00 | 80 | 1013.1 |
| 20260504032521 | 39 | 282 | 0.0 | 0.0 | 0.00 | 0.00 | 0.00 | 79 | 1013.0 |
| 20260504032018 | 39 | 267 | 0.0 | 0.0 | 0.00 | 0.00 | 0.00 | 82 | 1013.0 |
| 20260504031515 | 39 | 265 | 0.0 | 0.0 | 0.00 | 0.00 | 0.00 | 85 | 1013.1 |
| 20260504031011 | 39 | 278 | 0.0 | 0.0 | 0.00 | 0.00 | 0.00 | 85 | 1013.0 |
| 20260504030508 | 39 | 284 | 0.0 | 0.0 | 0.00 | 0.00 | 0.00 | 84 | 1012.9 |
| 20260504030004 | 39 | 283 | 0.0 | 0.0 | 0.00 | 0.00 | 0.00 | 84 | 1013.0 |
| 20260504025501 | 40 | 284 | 0.0 | 0.0 | 0.00 | 0.00 | 0.00 | 83 | 1012.9 |
| 20260504024958 | 40 | 262 | 0.0 | 0.0 | 0.00 | 0.00 | 0.00 | 83 | 1013.0 |
| 20260504024455 | 40 | 246 | 0.0 | 0.0 | 0.00 | 0.00 | 0.00 | 82 | 1013.0 |
| 20260504023952 | 40 | 276 | 0.0 | 0.0 | 0.00 | 0.00 | 0.00 | 81 | 1013.0 |
| 20260504023449 | 40 | 276 | 0.0 | 0.0 | 0.00 | 0.00 | 0.00 | 82 | 1012.9 |
| 20260504022944 | 41 | 276 | 0.0 | 0.0 | 0.00 | 0.00 | 0.00 | 82 | 1013.2 |
| 20260504022441 | 41 | 276 | 0.0 | 0.0 | 0.00 | 0.00 | 0.00 | 81 | 1013.0 |
| 20260504021937 | 41 | 276 | 0.0 | 0.0 | 0.00 | 0.00 | 0.00 | 79 | 1013.1 |
| 20260504021435 | 41 | 276 | 0.0 | 0.0 | 0.00 | 0.00 | 0.00 | 80 | 1012.9 |
| 20260504020932 | 42 | 276 | 0.0 | 0.0 | 0.00 | 0.00 | 0.00 | 79 | 1013.1 |
| 20260504020428 | 42 | 276 | 0.0 | 0.0 | 0.00 | 0.00 | 0.00 | 78 | 1013.0 |
| 20260504015925 | 42 | 276 | 0.0 | 0.0 | 0.00 | 0.00 | 0.00 | 77 | 1013.0 |
| 20260504015421 | 43 | 275 | 0.0 | 0.0 | 0.00 | 0.00 | 0.00 | 74 | 1012.8 |
| 20260504014917 | 43 | 276 | 0.0 | 0.0 | 0.00 | 0.00 | 0.00 | 76 | 1012.9 |
| 20260504014413 | 43 | 284 | 0.0 | 0.0 | 0.00 | 0.00 | 0.00 | 76 | 1013.1 |
| 20260504013910 | 44 | 294 | 0.0 | 0.0 | 0.00 | 0.00 | 0.00 | 76 | 1013.0 |
| 20260504013409 | 44 | 277 | 0.0 | 0.0 | 0.00 | 0.00 | 0.00 | 73 | 1012.7 |
| 20260504012904 | 44 | 277 | 0.0 | 0.0 | 0.00 | 0.00 | 0.00 | 71 | 1012.8 |
| 20260504012403 | 45 | 275 | 0.0 | 0.0 | 0.00 | 0.00 | 0.00 | 71 | 1012.7 |
| 20260504011900 | 45 | 275 | 0.0 | 0.0 | 0.00 | 0.00 | 0.00 | 71 | 1012.7 |
| 20260504011356 | 45 | 275 | 0.0 | 0.0 | 0.00 | 0.00 | 0.00 | 71 | 1012.8 |
| 20260504010852 | 45 | 276 | 0.0 | 0.0 | 0.00 | 0.00 | 0.00 | 72 | 1012.8 |
| 20260504010348 | 46 | 277 | 0.0 | 0.0 | 0.00 | 0.00 | 0.00 | 70 | 1012.8 |
| 20260504005845 | 46 | 260 | 0.0 | 0.0 | 0.00 | 0.00 | 0.00 | 68 | 1012.7 |
| 20260504005341 | 47 | 278 | 0.0 | 0.0 | 0.00 | 0.00 | 0.00 | 64 | 1012.7 |
| 20260504004839 | 48 | 278 | 0.0 | 0.0 | 0.00 | 0.00 | 0.00 | 61 | 1012.6 |
| 20260504004337 | 48 | 278 | 0.0 | 0.0 | 0.00 | 0.00 | 0.00 | 63 | 1012.5 |
| 20260504003833 | 49 | 232 | 0.0 | 0.0 | 0.00 | 0.00 | 0.00 | 57 | 1012.6 |
| 20260504003330 | 50 | 231 | 0.0 | 0.0 | 0.00 | 0.00 | 0.00 | 52 | 1012.5 |
| 20260504002827 | 51 | 231 | 0.0 | 0.0 | 0.00 | 0.00 | 0.00 | 54 | 1012.3 |
| 20260504002323 | 51 | 231 | 0.0 | 0.0 | 0.00 | 0.00 | 0.00 | 46 | 1012.3 |
| 20260504001821 | 52 | 231 | 0.0 | 0.0 | 0.00 | 0.00 | 0.00 | 47 | 1012.3 |
| 20260504001318 | 53 | 194 | 0.0 | 0.0 | 0.00 | 0.00 | 0.00 | 47 | 1012.2 |
| 20260504000815 | 54 | 168 | 1.0 | 1.0 | 0.00 | 0.00 | 0.00 | 40 | 1012.2 |
| 20260504000312 | 54 | 167 | 2.0 | 2.0 | 0.00 | 0.00 | 0.00 | 40 | 1012.3 |
| 20260503235810 | 55 | 204 | 0.0 | 1.0 | 0.00 | 0.00 | 0.00 | 42 | 1012.1 |
| 20260503235307 | 55 | 196 | 0.0 | 1.0 | 0.00 | 0.00 | 0.00 | 39 | 1012.0 |
| 20260503234805 | 56 | 207 | 0.0 | 0.0 | 0.00 | 0.00 | 0.00 | 38 | 1012.0 |
| 20260503234302 | 56 | 191 | 1.0 | 1.0 | 0.00 | 0.00 | 0.00 | 37 | 1011.9 |
| 20260503233800 | 57 | 158 | 2.0 | 2.0 | 0.00 | 0.00 | 0.00 | 37 | 1011.9 |
| 20260503233255 | 57 | 202 | 0.0 | 0.0 | 0.00 | 0.00 | 0.00 | 37 | 1011.7 |
| 20260503232752 | 57 | 198 | 1.0 | 1.0 | 0.00 | 0.00 | 0.00 | 36 | 1011.8 |
| 20260503232250 | 58 | 36 | 3.0 | 6.0 | 0.00 | 0.00 | 0.00 | 34 | 1011.7 |
| 20260503231748 | 59 | 74 | 1.0 | 1.0 | 0.00 | 0.00 | 0.00 | 35 | 1011.8 |
| 20260503231245 | 59 | 356 | 1.0 | 1.0 | 0.00 | 0.00 | 0.00 | 35 | 1011.8 |
| 20260503230740 | 59 | 177 | 0.0 | 1.0 | 0.00 | 0.00 | 0.00 | 34 | 1011.9 |
| 20260503230238 | 59 | 247 | 0.0 | 0.0 | 0.00 | 0.00 | 0.00 | 32 | 1011.7 |
| 20260503225735 | 60 | 163 | 1.0 | 1.0 | 0.00 | 0.00 | 0.00 | 31 | 1011.6 |
| 20260503225235 | 60 | 324 | 2.0 | 3.0 | 0.00 | 0.00 | 0.00 | 31 | 1011.7 |
| 20260503224732 | 61 | 5 | 3.0 | 4.0 | 0.00 | 0.00 | 0.00 | 30 | 1011.6 |
| 20260503224230 | 61 | 321 | 4.0 | 6.0 | 0.00 | 0.00 | 0.00 | 29 | 1011.7 |
| 20260503223727 | 61 | 259 | 5.0 | 6.0 | 0.00 | 0.00 | 0.00 | 30 | 1011.9 |
| 20260503223225 | 61 | 318 | 4.0 | 4.0 | 0.00 | 0.00 | 0.00 | 29 | 1011.6 |
| 20260503222721 | 62 | 313 | 6.0 | 8.0 | 0.00 | 0.00 | 0.00 | 29 | 1011.8 |
| 20260503222219 | 62 | 310 | 2.0 | 2.0 | 0.00 | 0.00 | 0.00 | 29 | 1011.7 |
| 20260503221717 | 62 | 317 | 4.0 | 4.0 | 0.00 | 0.00 | 0.00 | 29 | 1011.8 |
| 20260503221215 | 62 | 354 | 2.0 | 3.0 | 0.00 | 0.00 | 0.00 | 29 | 1011.8 |
| 20260503220711 | 62 | 273 | 4.0 | 6.0 | 0.00 | 0.00 | 0.00 | 30 | 1012.0 |
| 20260503220208 | 62 | 0 | 6.0 | 9.0 | 0.00 | 0.00 | 0.00 | 29 | 1011.9 |
| 20260503215705 | 62 | 309 | 4.0 | 6.0 | 0.00 | 0.00 | 0.00 | 30 | 1011.7 |
| 20260503215201 | 62 | 269 | 5.0 | 7.0 | 0.00 | 0.00 | 0.00 | 30 | 1011.8 |
| 20260503214700 | 62 | 335 | 2.0 | 2.0 | 0.00 | 0.00 | 0.00 | 29 | 1011.6 |
| 20260503214155 | 63 | 328 | 2.0 | 3.0 | 0.00 | 0.00 | 0.00 | 29 | 1011.6 |
| 20260503213655 | 62 | 222 | 2.0 | 3.0 | 0.00 | 0.00 | 0.00 | 30 | 1011.7 |
| 20260503213151 | 61 | 259 | 2.0 | 3.0 | 0.00 | 0.00 | 0.00 | 32 | 1011.7 |
| 20260503212649 | 60 | 328 | 1.0 | 1.0 | 0.00 | 0.00 | 0.00 | 35 | 1011.6 |
| 20260503212146 | 61 | 335 | 1.0 | 1.0 | 0.00 | 0.00 | 0.00 | 31 | 1011.6 |
| 20260503211644 | 61 | 185 | 2.0 | 3.0 | 0.00 | 0.00 | 0.00 | 30 | 1011.6 |
| 20260503211139 | 62 | 283 | 2.0 | 3.0 | 0.00 | 0.00 | 0.00 | 31 | 1011.7 |
| 20260503210635 | 61 | 272 | 4.0 | 4.0 | 0.00 | 0.00 | 0.00 | 30 | 1011.6 |
| 20260503210132 | 62 | 16 | 2.0 | 3.0 | 0.00 | 0.00 | 0.00 | 29 | 1011.7 |
| 20260503205628 | 62 | 0 | 3.0 | 4.0 | 0.00 | 0.00 | 0.00 | 31 | 1011.9 |
| 20260503205124 | 62 | 322 | 5.0 | 7.0 | 0.00 | 0.00 | 0.00 | 31 | 1011.8 |
| 20260503204621 | 60 | 351 | 3.0 | 3.0 | 0.00 | 0.00 | 0.00 | 31 | 1011.7 |
| 20260503204119 | 62 | 306 | 4.0 | 4.0 | 0.00 | 0.00 | 0.00 | 30 | 1011.7 |
| 20260503203616 | 62 | 348 | 4.0 | 4.0 | 0.00 | 0.00 | 0.00 | 30 | 1011.7 |
| 20260503203113 | 61 | 319 | 2.0 | 2.0 | 0.00 | 0.00 | 0.00 | 32 | 1011.6 |
| 20260503202610 | 61 | 314 | 6.0 | 8.0 | 0.00 | 0.00 | 0.00 | 31 | 1011.9 |
| 20260503202108 | 61 | 224 | 3.0 | 6.0 | 0.00 | 0.00 | 0.00 | 29 | 1011.8 |
| 20260503201606 | 61 | 296 | 8.0 | 9.0 | 0.00 | 0.00 | 0.00 | 31 | 1011.9 |
| 20260503201103 | 60 | 29 | 5.0 | 10.0 | 0.00 | 0.00 | 0.00 | 31 | 1012.0 |
| 20260503200559 | 60 | 358 | 1.0 | 2.0 | 0.00 | 0.00 | 0.00 | 31 | 1012.0 |
| 20260503200056 | 59 | 324 | 2.0 | 3.0 | 0.00 | 0.00 | 0.00 | 33 | 1012.0 |
| 20260503195553 | 59 | 61 | 7.0 | 10.0 | 0.00 | 0.00 | 0.00 | 31 | 1012.1 |
| 20260503195050 | 60 | 251 | 3.0 | 4.0 | 0.00 | 0.00 | 0.00 | 32 | 1012.1 |
| 20260503194547 | 59 | 214 | 2.0 | 2.0 | 0.00 | 0.00 | 0.00 | 32 | 1012.3 |
| 20260503194047 | 60 | 22 | 4.0 | 6.0 | 0.00 | 0.00 | 0.00 | 31 | 1012.5 |
| 20260503193544 | 60 | 20 | 3.0 | 7.0 | 0.00 | 0.00 | 0.00 | 31 | 1012.3 |
| 20260503193044 | 59 | 315 | 3.0 | 4.0 | 0.00 | 0.00 | 0.00 | 31 | 1012.5 |
| 20260503192541 | 59 | 109 | 3.0 | 4.0 | 0.00 | 0.00 | 0.00 | 32 | 1012.4 |
| 20260503192037 | 60 | 240 | 3.0 | 4.0 | 0.00 | 0.00 | 0.00 | 32 | 1012.5 |
| 20260503191533 | 59 | 23 | 7.0 | 8.0 | 0.00 | 0.00 | 0.00 | 31 | 1012.3 |
| 20260503191030 | 60 | 21 | 2.0 | 3.0 | 0.00 | 0.00 | 0.00 | 32 | 1012.5 |
| 20260503190527 | 59 | 174 | 2.0 | 2.0 | 0.00 | 0.00 | 0.00 | 33 | 1012.5 |
| 20260503190024 | 58 | 301 | 4.0 | 4.0 | 0.00 | 0.00 | 0.00 | 33 | 1012.8 |
| 20260503185521 | 58 | 322 | 6.0 | 8.0 | 0.00 | 0.00 | 0.00 | 32 | 1012.7 |
| 20260503185021 | 58 | 313 | 1.0 | 2.0 | 0.00 | 0.00 | 0.00 | 30 | 1012.8 |
| 20260503184517 | 58 | 317 | 2.0 | 3.0 | 0.00 | 0.00 | 0.00 | 31 | 1012.7 |
| 20260503184014 | 59 | 51 | 2.0 | 2.0 | 0.00 | 0.00 | 0.00 | 32 | 1012.9 |
| 20260503183510 | 59 | 309 | 3.0 | 6.0 | 0.00 | 0.00 | 0.00 | 31 | 1012.8 |
| 20260503183008 | 59 | 293 | 4.0 | 7.0 | 0.00 | 0.00 | 0.00 | 33 | 1012.9 |
| 20260503182507 | 59 | 320 | 3.0 | 3.0 | 0.00 | 0.00 | 0.00 | 32 | 1012.8 |
| 20260503182004 | 59 | 277 | 2.0 | 4.0 | 0.00 | 0.00 | 0.00 | 34 | 1012.9 |
| 20260503181500 | 59 | 282 | 4.0 | 4.0 | 0.00 | 0.00 | 0.00 | 32 | 1013.1 |
| 20260503180956 | 59 | 259 | 2.0 | 2.0 | 0.00 | 0.00 | 0.00 | 31 | 1013.0 |
| 20260503180454 | 58 | 273 | 2.0 | 2.0 | 0.00 | 0.00 | 0.00 | 32 | 1012.9 |
| 20260503175951 | 58 | 7 | 2.0 | 2.0 | 0.00 | 0.00 | 0.00 | 30 | 1013.0 |
| 20260503175449 | 58 | 53 | 2.0 | 3.0 | 0.00 | 0.00 | 0.00 | 31 | 1013.1 |
| 20260503174945 | 58 | 339 | 3.0 | 3.0 | 0.00 | 0.00 | 0.00 | 31 | 1012.9 |
| 20260503174443 | 58 | 276 | 5.0 | 7.0 | 0.00 | 0.00 | 0.00 | 32 | 1013.2 |
| 20260503173938 | 57 | 327 | 6.0 | 8.0 | 0.00 | 0.00 | 0.00 | 32 | 1013.2 |
| 20260503173434 | 56 | 313 | 5.0 | 7.0 | 0.00 | 0.00 | 0.00 | 31 | 1013.3 |
| 20260503172931 | 58 | 263 | 4.0 | 8.0 | 0.00 | 0.00 | 0.00 | 32 | 1013.4 |
| 20260503172428 | 57 | 345 | 4.0 | 4.0 | 0.00 | 0.00 | 0.00 | 32 | 1013.3 |
| 20260503171925 | 56 | 17 | 9.0 | 13.0 | 0.00 | 0.00 | 0.00 | 32 | 1013.2 |
| 20260503171421 | 56 | 115 | 2.0 | 3.0 | 0.00 | 0.00 | 0.00 | 33 | 1013.4 |
| 20260503170919 | 56 | 72 | 2.0 | 4.0 | 0.00 | 0.00 | 0.00 | 36 | 1013.3 |
| 20260503170415 | 56 | 42 | 3.0 | 3.0 | 0.00 | 0.00 | 0.00 | 31 | 1013.4 |
| 20260503150807 | 53 | 266 | 4.0 | 4.0 | 0.00 | 0.00 | 0.00 | 36 | 1014.8 |
| 20260503150303 | 52 | 55 | 2.0 | 4.0 | 0.00 | 0.00 | 0.00 | 38 | 1014.5 |
| 20260503140228 | 49 | 263 | 3.0 | 3.0 | 0.00 | 0.00 | 0.00 | 41 | 1014.9 |
| 20260503131157 | 48 | 295 | 6.0 | 10.0 | 0.00 | 0.00 | 0.00 | 41 | 1015.1 |
| 20260503130655 | 48 | 302 | 4.0 | 6.0 | 0.00 | 0.00 | 0.00 | 42 | 1014.9 |
| 20260503130152 | 47 | 238 | 2.0 | 2.0 | 0.00 | 0.00 | 0.00 | 44 | 1014.8 |